Weather History for Parkersburg, WV

Change the Weather History Date:

Wednesday, July 10, 2013

  Actual Average Record
Temperature  
Mean Temperature 77 °F 74 °F  
Max Temperature 88 °F 85 °F 102 °F (1936)
Min Temperature 65 °F 64 °F 48 °F (1961)
Degree Days  
Heating Degree Days 0 0  
Month to date heating degree days 0 0  
Since 1 June heating degree days 6 19  
Since 1 July heating degree days 0 0  
Cooling Degree Days 12 10  
Month to date cooling degree days 109 92  
Year to date cooling degree days 421 367  
Since 1 June cooling degree days 295 283  
Growing Degree Days 27 (Base 50)    
Moisture  
Dew Point 69 °F    
Average Humidity 82    
Maximum Humidity 100    
Minimum Humidity 63    
Precipitation  
Precipitation 0.55 in 0.14 in 1.46 in (2003)
Month to date precipitation 4.88 1.28  
Year to date precipitation 23.61 22.25  
Sea Level Pressure  
Sea Level Pressure 29.98 in    
Wind  
Wind Speed 4 mph (SSE)    
Max Wind Speed 28 mph    
Max Gust Speed 43 mph    
Visibility 7 miles    
Events Rain , Thunderstorm    
T = Trace of Precipitation, MM = Missing Value Source: NWS Daily Summary

Daily Weather History Graph

Daily Weather History Graph

Search for Another Location

Airport:

Trip Planner

Search our weather history database for the weather conditions in past years. The results will help you decide how hot, cold, wet, or windy it might be!

Date:

Astronomy

Jul. 10, 2013 Rise Set
Actual Time 6:08 AM EDT 8:53 PM EDT
Civil Twilight 5:36 AM EDT 9:25 PM EDT
Nautical Twilight 4:56 AM EDT 10:05 PM EDT
Astronomical Twilight 4:11 AM EDT 10:50 PM EDT
Moon 8:26 AM EDT (7/10) 10:04 PM EDT (7/10)
Length of Visible Light 15h 49m
Length of Day
14h 45m
Waxing Crescent, 5% of the Moon is Illuminated
Jul 10
Waxing Crescent
Jul 15
First Quarter
Jul 22
Full
Jul 29
Last Quarter
Aug 6
New

Hourly Weather History & Observations

Time (EDT) Temp. Heat Index Dew Point Humidity Pressure Visibility Wind Dir Wind Speed Gust Speed Precip Events Conditions
12:03 AM 71.6 °F - 69.8 °F 94% 30.10 in 5.0 mi NNW 6.9 mph - 0.01 in   Overcast
12:53 AM 71.1 °F - 70.0 °F 96% 30.07 in 6.0 mi ENE 5.8 mph - 0.03 in Rain , Thunderstorm Light Thunderstorms and Rain
1:17 AM 71.6 °F - 69.8 °F 94% 30.07 in 6.0 mi ESE 5.8 mph - 0.00 in   Overcast
1:53 AM 71.1 °F - 69.1 °F 93% 30.04 in 6.0 mi SE 3.5 mph - 0.00 in   Partly Cloudy
2:53 AM 70.0 °F - 69.1 °F 97% 30.03 in 5.0 mi Calm Calm - N/A   Partly Cloudy
10:53 AM 81.0 °F 86.2 °F 73.9 °F 79% 29.99 in 10.0 mi WSW 5.8 mph - N/A   Unknown
11:32 AM 82.4 °F 88.2 °F 73.4 °F 74% 30.01 in 10.0 mi SSW 9.2 mph 16.1 mph N/A   Scattered Clouds
11:53 AM 84.0 °F 91.2 °F 73.9 °F 72% 29.98 in 10.0 mi South 8.1 mph - N/A   Scattered Clouds
12:53 PM 84.0 °F 91.2 °F 73.9 °F 72% 29.96 in 10.0 mi South 8.1 mph - N/A   Partly Cloudy
1:53 PM 86.0 °F 93.8 °F 73.9 °F 67% 29.95 in 10.0 mi WSW 9.2 mph - N/A   Scattered Clouds
2:53 PM 88.0 °F 98.5 °F 75.9 °F 67% 29.91 in 8.0 mi SSW 10.4 mph - N/A   Scattered Clouds
3:53 PM 86.0 °F 93.0 °F 73.0 °F 65% 29.88 in 7.0 mi SSW 9.2 mph - N/A   Mostly Cloudy
4:53 PM 87.1 °F 95.4 °F 73.9 °F 65% 29.87 in 9.0 mi South 11.5 mph - N/A   Clear
5:33 PM 84.2 °F 92.3 °F 75.2 °F 74% 29.90 in 9.0 mi SSW 6.9 mph - N/A Thunderstorm Mostly Cloudy
5:53 PM 84.9 °F 93.3 °F 75.0 °F 72% 29.88 in 10.0 mi SW 5.8 mph - N/A Thunderstorm Mostly Cloudy
6:33 PM 66.2 °F - 64.4 °F 94% 29.99 in 4.0 mi North 13.8 mph 39.1 mph 0.03 in Rain , Thunderstorm Light Thunderstorms and Rain
6:41 PM 66.2 °F - 64.4 °F 94% 29.99 in 4.0 mi NNE 15.0 mph 27.6 mph 0.24 in Rain , Thunderstorm Heavy Thunderstorms and Rain
6:46 PM 66.2 °F - 64.4 °F 94% 29.98 in 1.5 mi NNE 10.4 mph 27.6 mph 0.27 in Rain , Thunderstorm Heavy Thunderstorms and Rain
6:53 PM 66.9 °F - 64.0 °F 90% 29.96 in 1.5 mi North 8.1 mph 17.3 mph 0.29 in Rain , Thunderstorm Light Rain
6:55 PM 66.2 °F - 64.4 °F 94% 29.97 in 4.0 mi North 8.1 mph - 0.00 in Rain Light Rain
7:20 PM 66.2 °F - 64.4 °F 94% 29.99 in 7.0 mi ENE 5.8 mph - 0.02 in Rain , Thunderstorm Light Thunderstorms and Rain
7:53 PM 66.9 °F - 64.0 °F 90% 29.98 in 6.0 mi ESE 5.8 mph - 0.07 in Rain , Thunderstorm Thunderstorms and Rain
8:22 PM 66.2 °F - 64.4 °F 94% 29.99 in 4.0 mi ESE 5.8 mph - 0.10 in Rain Rain
8:53 PM 66.0 °F - 64.0 °F 93% 29.96 in 8.0 mi SE 5.8 mph - 0.15 in Rain Light Rain
9:53 PM 66.0 °F - 64.0 °F 93% 29.99 in 10.0 mi SSE 4.6 mph - 0.03 in Rain Light Rain
10:53 PM 66.0 °F - 64.0 °F 93% 29.95 in 10.0 mi Calm Calm - 0.00 in   Overcast
11:53 PM 64.9 °F - 64.0 °F 97% 29.95 in 10.0 mi Calm Calm - N/A   Overcast